ECHOSTAR 18

Last updated on Mon Sep 15 2025 00:02:49 GMT+0000 (Coordinated Universal Time)

1 41592U 16039B 25257.01572481 -.00000293 00000+0 00000+0 0 9992 2 41592 0.0183 147.9556 0001602 37.0635 112.5359 1.00268284 33851
UTC large
Height (km)
Speed (km/s)
/
Latitude / Longitude
Inclination (degrees)
Orbital Period (minutes)
Azimuth
Elevation
Range (km)
Doppler Factor

Next 0 passes for location: London (51.5072 / 0.1276)

Sorry there are no passes over London.